Location: C.E.K. Mees Observatory
(42.7003°N, 77.4088°W)
Time: 12:24:07
(UTC-04:00)

ISS - Pass Details

Date: 13 October 2017
Orbit: 401 x 408 km, 51.6° (Epoch: 20 October)

Event Time Altitude Azimuth Distance (km) Brightness Sun altitude
Rises 20:17:33 0° 297° (WNW) 2,324 1.3 -20.5°
Reaches altitude 10° 20:19:45 10° 287° (WNW) 1,462 0.1 -20.9°
Maximum altitude 20:22:43 32° 222° (SW) 713 -2.4 -21.4°
Enters shadow 20:23:05 31° 207° (SSW) 729 -2.4 -21.5°
